Location: Newark
(46.7000°N, 60.6000°W)
Time: 13:50:42
(UTC+00:00)

S-56A Canister/Altair - All Passes

Search period start: 31 October 2020 00:00
Search period end: 10 November 2020 00:00
Orbit: 633 x 2499 km, 38.9° (Epoch: 30 October)

Date Brightness Start Highest point End Pass type
(mag) Time Alt. Az. Time Alt. Az. Time Alt. Az.
31 Oct - 07:26:56 10° SSE 07:28:13 11° SE 07:29:36 10° SE visible
31 Oct - 09:25:37 10° SW 09:30:33 35° SSE 09:37:23 10° E visible
31 Oct - 11:27:48 10° WSW 11:34:01 48° S 11:43:18 10° ESE daylight
31 Oct - 13:30:56 10° W 13:38:09 36° SSW 13:48:22 10° SE daylight
31 Oct - 15:36:24 10° WSW 15:42:24 17° SW 15:49:35 10° S daylight
01 Nov - 08:53:28 10° SW 08:58:00 31° SSE 09:04:02 10° E visible
01 Nov - 10:55:27 10° WSW 11:01:15 46° S 11:09:50 10° ESE daylight
01 Nov - 12:58:26 10° W 13:05:14 37° SSW 13:14:58 10° SE daylight
01 Nov - 15:03:24 10° WSW 15:09:25 18° SSW 15:16:48 10° S daylight
02 Nov - 08:21:22 10° SSW 08:25:29 27° SSE 08:30:45 10° E visible
02 Nov - 10:23:10 10° WSW 10:28:34 45° S 10:36:25 10° ESE daylight
02 Nov - 12:26:00 10° W 12:32:23 37° SSW 12:41:34 10° SE daylight
02 Nov - 14:30:33 10° WSW 14:36:29 20° SSW 14:43:55 10° S daylight
03 Nov - 07:49:17 10° SSW 07:53:01 23° SSE 07:57:32 10° ESE visible
03 Nov - 09:50:52 10° WSW 09:55:55 42° S 10:03:04 10° ESE visible
03 Nov - 11:53:36 10° WSW 11:59:34 38° SSW 12:08:12 10° SE daylight
03 Nov - 13:57:47 10° WSW 14:03:34 21° SSW 14:10:57 10° SSE daylight
04 Nov - 07:17:17 10° SSW 07:20:33 19° SSE 07:24:20 10° ESE visible
04 Nov - 09:18:36 10° WSW 09:23:20 39° S 09:29:49 10° ESE visible
04 Nov - 11:21:14 10° WSW 11:26:50 38° S 11:34:52 10° SE daylight
04 Nov - 13:25:08 10° WSW 13:30:42 21° SSW 13:37:55 10° SSE daylight
05 Nov - 06:45:20 10° S 06:48:07 16° SSE 06:51:08 10° ESE visible
05 Nov - 08:46:20 10° WSW 08:50:47 36° S 08:56:39 10° ESE visible
05 Nov - 10:48:53 10° WSW 10:54:08 38° S 11:01:35 10° SE daylight
05 Nov - 12:52:33 10° WSW 12:57:53 22° SSW 13:04:52 10° SSE daylight
06 Nov - 06:13:32 10° S 06:15:40 13° SSE 06:17:54 10° ESE visible
06 Nov - 08:14:04 10° SW 08:18:16 33° SSE 08:23:34 10° ESE visible
06 Nov - 10:16:32 10° WSW 10:21:29 37° S 10:28:21 10° ESE visible
06 Nov - 12:20:01 10° WSW 12:25:07 23° SSW 12:31:48 10° SSE daylight
07 Nov - 05:42:02 10° SSE 05:43:12 11° SSE 05:44:22 10° SE night (unlit)
07 Nov - 07:41:48 10° SW 07:45:46 30° SSE 07:50:33 10° ESE visible
07 Nov - 09:44:13 10° WSW 09:48:52 37° S 09:55:11 10° ESE visible
07 Nov - 11:47:33 10° WSW 11:52:23 23° SSW 11:58:45 10° SSE daylight
08 Nov - 07:09:30 10° SW 07:13:18 27° SSE 07:17:37 10° ESE visible
08 Nov - 09:11:53 10° WSW 09:16:18 36° S 09:22:07 10° ESE visible
08 Nov - 11:15:06 10° WSW 11:19:41 24° SSW 11:25:43 10° SSE daylight
09 Nov - 06:37:12 10° SW 06:40:50 25° SSE 06:44:46 10° ESE visible
09 Nov - 08:39:32 10° WSW 08:43:46 35° S 08:49:06 10° ESE visible
09 Nov - 10:42:41 10° WSW 10:47:03 24° SSW 10:52:43 10° SSE daylight
